Location: Highland Meadows Observing Site
(48.4428°N, 114.5461°W)
Time: 00:57:16
(UTC-06:00)

Gurwin Techsat 1B - Visible Passes

Search period start: 27 March 2015 00:00
Search period end: 06 April 2015 00:00
Orbit: 812 x 814 km, 98.5° (Epoch: 25 March)

Date Brightness Start Highest point End Pass type
(mag) Time Alt. Az. Time Alt. Az. Time Alt. Az.
27 Mar 11.0 02:56:20 10° NE 02:59:05 15° E 02:59:05 15° E visible
27 Mar 8.4 04:34:40 10° NNE 04:40:02 85° WNW 04:40:18 81° SW visible
27 Mar 10.3 06:16:07 10° NNW 06:19:20 16° NW 06:21:32 12° W visible
28 Mar 8.8 04:11:59 10° NNE 04:17:17 64° E 04:17:27 64° ESE visible
28 Mar 9.9 05:52:45 10° N 05:56:53 23° WNW 05:58:40 19° W visible
29 Mar 9.5 03:49:25 10° NNE 03:54:28 42° E 03:54:34 42° E visible
29 Mar 9.5 05:29:38 10° N 05:34:22 33° WNW 05:35:47 28° W visible
30 Mar 10.2 03:27:04 10° NE 03:31:32 28° E 03:31:42 28° E visible
30 Mar 8.9 05:06:40 10° N 05:11:47 48° WNW 05:12:55 41° WSW visible
31 Mar 10.7 03:05:01 10° NE 03:08:31 18° E 03:08:50 18° E visible
31 Mar 8.5 04:43:49 10° N 04:49:09 72° WNW 04:50:03 59° SW visible
31 Mar 10.5 06:25:39 10° NNW 06:28:19 14° NW 06:30:45 10° W visible
01 Apr 11.1 02:43:50 10° ENE 02:45:24 11° E 02:45:57 11° E visible
01 Apr 8.6 04:21:05 10° NNE 04:26:25 76° ESE 04:27:10 64° SSE visible
01 Apr 10.1 06:02:06 10° NNW 06:05:53 20° WNW 06:08:24 14° W visible
02 Apr 9.2 03:58:27 10° NNE 04:03:38 50° E 04:04:18 47° ESE visible
02 Apr 9.7 05:38:53 10° N 05:43:24 28° WNW 05:45:32 21° W visible
03 Apr 9.9 03:36:00 10° NNE 03:40:45 33° E 03:41:26 32° ESE visible
03 Apr 9.2 05:15:52 10° N 05:20:51 41° WNW 05:22:39 31° WSW visible
04 Apr 10.4 03:13:47 10° NE 03:17:46 22° E 03:18:33 21° ESE visible
04 Apr 8.7 04:52:58 10° N 04:58:14 61° WNW 04:59:46 43° SW visible
04 Apr 10.6 06:35:23 10° NNW 06:37:16 12° NW 06:38:56 10° WNW visible
05 Apr 10.9 02:52:05 10° NE 02:54:41 14° E 02:55:41 14° E visible
05 Apr 8.5 04:30:11 10° NNE 04:35:32 89° E 04:36:54 52° SSW visible
05 Apr 10.3 06:11:30 10° NNW 06:14:53 17° WNW 06:18:06 10° W visible
